Change the Weather History Date:

Wednesday, November 2, 2011

  Actual Average Record
Temperature  
Mean Temperature 50 °F -  
Max Temperature 64 °F 55 °F 77 °F (1964)
Min Temperature 37 °F 36 °F 9 °F (1951)
Degree Days  
Heating Degree Days 14    
Moisture  
Dew Point 37 °F    
Average Humidity 75    
Maximum Humidity 87    
Minimum Humidity 49    
Precipitation  
Precipitation 1.62 in - - ()
Sea Level Pressure  
Sea Level Pressure 30.05 in    
Wind  
Wind Speed 10 mph (North)    
Max Wind Speed 26 mph    
Max Gust Speed 33 mph    
Visibility 8 miles    
Events Rain , Snow    
Averages and records for this station are not official NWS values.
T = Trace of Precipitation, MM = Missing Value Source: NWS Daily Summary

Daily Weather History Graph

Daily Weather History Graph

Search for Another Location

Airport or City:

Trip Planner

Search our weather history database for the weather conditions in past years. The results will help you decide how hot, cold, wet, or windy it might be!

Date:

Astronomy

Nov. 02, 2011 Rise Set
Actual Time 7:45 AM CDT 6:08 PM CDT
Civil Twilight 7:16 AM CDT 6:36 PM CDT
Nautical Twilight 6:44 AM CDT 7:09 PM CDT
Astronomical Twilight 6:11 AM CDT 7:41 PM CDT
Moon 2:05 PM CDT (11/2) No Moon Set
Length of Visible Light 11h 20m
Length of Day
10h 23m
Waxing Crescent, 50% of the Moon is Illuminated
Nov 2
Waxing Crescent
Nov 10
Full
Nov 18
Last Quarter
Nov 25
New
Dec 2
First Quarter

Hourly Weather History & Observations

Time (CDT) Temp. Windchill Dew Point Humidity Pressure Visibility Wind Dir Wind Speed Gust Speed Precip Events Conditions
12:35 AM 64.4 °F - 44.6 °F 49% 29.94 in 10.0 mi WSW 3.5 mph - N/A   Overcast
12:55 AM 64.4 °F - 44.6 °F 49% 29.93 in 10.0 mi SW 3.5 mph - N/A   Mostly Cloudy
1:15 AM 62.6 °F - 44.6 °F 52% 29.94 in 10.0 mi SW 5.8 mph - N/A   Scattered Clouds
1:55 AM 62.6 °F - 44.6 °F 52% 29.95 in 10.0 mi West 4.6 mph - N/A   Overcast
2:15 AM 57.2 °F - 46.4 °F 67% 29.95 in 10.0 mi NW 3.5 mph - N/A   Overcast
2:35 AM 55.4 °F - 44.6 °F 67% 29.96 in 10.0 mi NNW 3.5 mph - N/A   Overcast
2:55 AM 55.4 °F - 42.8 °F 63% 29.96 in 10.0 mi NNW 4.6 mph - N/A   Overcast
3:15 AM 53.6 °F - 39.2 °F 58% 29.97 in 10.0 mi NNW 5.8 mph - N/A   Overcast
3:35 AM 53.6 °F - 39.2 °F 58% 29.97 in 10.0 mi NNW 5.8 mph - N/A   Overcast
3:55 AM 51.8 °F - 37.4 °F 58% 29.97 in 10.0 mi NNW 6.9 mph - N/A   Overcast
4:55 AM 48.2 °F - 35.6 °F 62% 29.99 in 10.0 mi NNW 10.4 mph - N/A   Overcast
5:55 AM 46.4 °F 41.9 °F 35.6 °F 66% 30.01 in 10.0 mi North 9.2 mph - N/A   Mostly Cloudy
6:15 AM 48.2 °F - 35.6 °F 62% 30.01 in 10.0 mi North 9.2 mph - N/A   Overcast
6:35 AM 48.2 °F - 35.6 °F 62% 30.02 in 10.0 mi North 5.8 mph - N/A   Overcast
6:55 AM 48.2 °F - 35.6 °F 62% 30.02 in 10.0 mi North 6.9 mph - N/A   Overcast
7:15 AM 48.2 °F - 35.6 °F 62% 30.02 in 10.0 mi North 6.9 mph - N/A   Overcast
7:35 AM 48.2 °F - 35.6 °F 62% 30.03 in 10.0 mi NNW 6.9 mph - N/A   Overcast
7:55 AM 48.2 °F - 35.6 °F 62% 30.04 in 10.0 mi North 6.9 mph - N/A   Overcast
8:15 AM 48.2 °F - 35.6 °F 62% 30.04 in 10.0 mi North 9.2 mph - N/A   Overcast
8:35 AM 46.4 °F 42.9 °F 37.4 °F 71% 30.05 in 10.0 mi North 6.9 mph - N/A Rain Rain
9:15 AM 44.6 °F 40.7 °F 37.4 °F 76% 30.05 in 1.0 mi NNE 6.9 mph - 0.15 in   Overcast
9:35 AM 44.6 °F 40.2 °F 39.2 °F 81% 30.07 in 1.8 mi NNW 8.1 mph - 0.24 in Rain Rain
9:55 AM 44.6 °F 38.8 °F 39.2 °F 81% 30.05 in 7.0 mi North 11.5 mph - 0.30 in Rain Light Rain
10:15 AM 44.6 °F 38.8 °F 39.2 °F 81% 30.05 in 0.2 mi North 11.5 mph - 0.21 in Rain Rain
10:35 AM 44.6 °F 37.4 °F 39.2 °F 81% 30.03 in 5.0 mi North 16.1 mph - 0.30 in Rain Heavy Rain
10:55 AM 44.6 °F 39.2 °F 39.2 °F 81% 30.06 in 7.0 mi North 10.4 mph - 0.31 in Rain Light Rain
11:15 AM 44.6 °F 38.4 °F 39.2 °F 81% 30.05 in 5.0 mi North 12.7 mph - 0.05 in Rain Rain
11:35 AM 44.6 °F 39.2 °F 39.2 °F 81% 30.03 in 10.0 mi North 10.4 mph - 0.07 in Rain Rain
11:55 AM 44.6 °F 39.2 °F 39.2 °F 81% 30.08 in 1.5 mi NW 10.4 mph - 0.16 in Rain Heavy Rain
12:15 PM 42.8 °F 36.6 °F 39.2 °F 87% 30.04 in 10.0 mi North 11.5 mph 18.4 mph 0.02 in Rain Rain
12:35 PM 42.8 °F 36.6 °F 39.2 °F 87% 30.05 in 10.0 mi NNW 11.5 mph 16.1 mph 0.03 in Rain Rain
12:55 PM 42.8 °F 37.0 °F 37.4 °F 81% 30.09 in 10.0 mi NNW 10.4 mph 21.9 mph 0.06 in Rain Rain
1:35 PM 42.8 °F 36.2 °F 37.4 °F 81% 30.06 in 2.5 mi NNW 12.7 mph - 0.21 in   Overcast
1:55 PM 42.8 °F 34.8 °F 37.4 °F 81% 30.05 in 4.0 mi North 17.3 mph 23.0 mph 0.30 in Rain Light Rain
2:15 PM 42.8 °F 35.1 °F 37.4 °F 81% 30.04 in 10.0 mi North 16.1 mph 24.2 mph 0.03 in Rain Light Rain
2:35 PM 42.8 °F 34.5 °F 37.4 °F 81% 30.07 in 10.0 mi North 18.4 mph 25.3 mph 0.03 in   Light Drizzle
2:55 PM 41.0 °F 31.9 °F 35.6 °F 81% 30.07 in 10.0 mi North 19.6 mph 26.5 mph 0.05 in Rain Light Rain
3:15 PM 41.0 °F 30.9 °F 35.6 °F 81% 30.05 in 10.0 mi North 24.2 mph 32.2 mph 0.02 in Rain Light Rain
3:35 PM 39.2 °F 29.8 °F 35.6 °F 87% 30.08 in 10.0 mi North 18.4 mph 26.5 mph 0.03 in   Drizzle
3:55 PM 39.2 °F 29.3 °F 35.6 °F 87% 30.08 in 7.0 mi North 20.7 mph 27.6 mph 0.03 in Rain Rain
4:15 PM 39.2 °F 29.0 °F 35.6 °F 87% 30.10 in 10.0 mi North 21.9 mph 27.6 mph 0.01 in Rain Light Rain
4:35 PM 39.2 °F 29.3 °F 35.6 °F 87% 30.10 in 10.0 mi North 20.7 mph 27.6 mph 0.01 in Rain Light Rain
4:55 PM 39.2 °F 30.5 °F 33.8 °F 81% 30.11 in 7.0 mi North 16.1 mph 26.5 mph 0.02 in Rain Light Rain
5:15 PM 37.4 °F 28.2 °F 33.8 °F 87% 30.11 in 5.0 mi North 16.1 mph 29.9 mph 0.01 in Rain Rain
5:35 PM 37.4 °F 27.2 °F 33.8 °F 87% 30.10 in 7.0 mi North 19.6 mph 25.3 mph 0.03 in Rain Light Rain
5:55 PM 37.4 °F 27.5 °F 32.0 °F 81% 30.09 in 10.0 mi North 18.4 mph 25.3 mph 0.03 in   Light Drizzle
6:15 PM 37.4 °F 27.5 °F 32.0 °F 81% 30.11 in 10.0 mi North 18.4 mph 24.2 mph 0.01 in Rain Light Rain
6:35 PM 37.4 °F 25.6 °F 33.8 °F 87% 30.09 in 4.0 mi NNE 26.5 mph 32.2 mph 0.05 in   Overcast
6:55 PM 37.4 °F 26.6 °F 32.0 °F 81% 30.10 in 4.0 mi NNE 21.9 mph 31.1 mph 0.19 in Snow Light Snow
7:15 PM 37.4 °F 26.9 °F 33.8 °F 87% 30.12 in 7.0 mi North 20.7 mph - 0.04 in Rain Light Rain
7:35 PM 37.4 °F 27.5 °F 33.8 °F 87% 30.11 in 10.0 mi North 18.4 mph 26.5 mph 0.05 in Rain Light Rain
8:15 PM 37.4 °F 26.9 °F 33.8 °F 87% 30.10 in 10.0 mi North 20.7 mph 27.6 mph N/A Rain Light Rain
8:35 PM 37.4 °F 27.2 °F 33.8 °F 87% 30.09 in 7.0 mi NNE 19.6 mph 29.9 mph 0.04 in Rain Light Rain
8:55 PM 37.4 °F 27.2 °F 33.8 °F 87% 30.11 in 7.0 mi North 19.6 mph 28.8 mph 0.08 in Rain Light Rain
9:15 PM 37.4 °F 26.6 °F 33.8 °F 87% 30.09 in 10.0 mi North 21.9 mph 28.8 mph 0.02 in Rain Rain
9:35 PM 37.4 °F 26.4 °F 33.8 °F 87% 30.09 in 10.0 mi NNE 23.0 mph 33.4 mph 0.03 in Rain Light Rain
10:15 PM 37.4 °F 26.1 °F 33.8 °F 87% 30.12 in 10.0 mi NNE 24.2 mph 31.1 mph 0.01 in Rain Light Rain
10:35 PM 37.4 °F 27.2 °F 33.8 °F 87% 30.10 in 10.0 mi NNE 19.6 mph 25.3 mph 0.02 in Rain Rain
10:55 PM 37.4 °F 28.9 °F 33.8 °F 87% 30.14 in 10.0 mi NNE 13.8 mph 21.9 mph 0.04 in Rain Light Rain
11:15 PM 37.4 °F 28.2 °F 33.8 °F 87% 30.12 in 10.0 mi NE 16.1 mph 19.6 mph 0.01 in Rain Light Rain
11:35 PM 37.4 °F 27.5 °F 33.8 °F 87% 30.11 in 10.0 mi NNE 18.4 mph 27.6 mph 0.01 in Rain Light Rain
11:55 PM 37.4 °F 27.5 °F 33.8 °F 87% 30.11 in 10.0 mi NNE 18.4 mph 23.0 mph 0.02 in Rain Rain